[[{"header":{"parameterUnit":"m.s-1","parameterCategory":2,"la1":30.2991,"la2":30.254,"lo1":-89.0895,"lo2":-89.0444,"dy":0.0017,"dx":0.0017,"nx":28,"ny":28,"refTime":"2025-02-10T09:00:00:Z","depth":"0","parameterNumber":2,"parameterNumberName":"U-component_of_CURRENTS"},"data":[0,0,0,0,0,0,0,0,0,0,0,0,0,0,0,0,0,0,0,0,0,0,0,0,0,0,0,0,0,0,0,0,0,0,0,0,0,0,0,0,0,0,0,0,0,0,0,0,0,0,0,0,0,0,0,0,0,0,0.227,0.227,0,0.2193,0.2192,0.219,0.2098,0.2097,0.2096,0.2095,0.1943,0.194,0.1937,0,0,0,0,0,0,0,0,0,0,0,0,0,0.2303,0.2303,0.227,0.227,0.2269,0.2193,0.2192,0.219,0.2098,0.2097,0.2096,0.2095,0.1944,0.1941,0.1937,0,0,0,0,0,0,0,0,0,0,0,0,0,0.2259,0.2303,0.2271,0.2218,0.2213,0.2193,0.2191,0.219,0.2099,0.2097,0.2096,0.2094,0.1945,0.1941,0.1936,0.1936,0,0,0.1922,0.192,0,0,0,0,0,0,0,0,0.2262,0.2258,0.2226,0.2222,0.2216,0.2158,0.2147,0.2103,0.2099,0.2137,0.2095,0.2094,0.2012,0.2002,0.1985,0.1929,0.1923,0.1921,0.1919,0.1916,0.1915,0,0,0,0,0,0,0,0.2265,0.226,0.2235,0.2226,0.222,0.2186,0.2178,0.2138,0.2079,0.2134,0.2128,0.2127,0.2008,0.199,0.198,0.192,0.1921,0.1917,0.1914,0.1913,0.1915,0.1918,0,0,0,0,0,0,0.2288,0.2264,0.2237,0.2233,0.2241,0.2188,0.2178,0.2174,0.208,0.2067,0.2129,0.2124,0.1998,0.1986,0.1975,0.203,0.1917,0.1912,0.1909,0.1912,0.1916,0.1919,0,0,0,0,0,0,0.2289,0.2286,0.2241,0.225,0.2243,0.2189,0.2185,0.2173,0.2165,0.2079,0.2062,0.2133,0.1997,0.1981,0.1971,0.2021,0.191,0.1906,0.1909,0.1913,0.1917,0.2101,0,0,0,0,0,0,0.229,0.2287,0.2292,0.2252,0.2243,0.2253,0.2186,0.2173,0.2168,0.2161,0.2077,0.2061,0.1994,0.1979,0.1967,0.2012,0.1902,0.1905,0.1911,0.1916,0.2091,0.2111,0.2128,0,0,0,0,0,0.2291,0.23,0.2293,0.229,0.2252,0.2255,0.2248,0.2201,0.2171,0.2183,0.2136,0.2064,0.2005,0.1978,0.1963,0.2008,0.1903,0.1909,0.1916,0.2083,0.2107,0.2128,0,0,0,0,0,0,0.2302,0.2291,0.2282,0.2282,0.2285,0.2242,0.2243,0.2221,0.2192,0.2183,0.2096,0.2079,0.209,0.203,0.2003,0.2027,0.1944,0.1948,0.2077,0.2098,0.2116,0.2131,0.1898,0,0,0,0,0,0.2316,0.2322,0.2314,0.2316,0.2325,0.2293,0.2288,0.2268,0.2239,0.2223,0.2175,0.2128,0.2105,0.2087,0.2051,0.2062,0.205,0.2084,0.2103,0.2118,0.2123,0.216,0.2183,0.194,0.194,0.194,0,0,0.2314,0.2314,0.2312,0.2321,0.2313,0.234,0.2285,0.2295,0.2316,0.2213,0.2225,0.219,0.2124,0.2141,0.214,0.2096,0.2193,0.2127,0.2141,0.2136,0.217,0.2193,0.2214,0.1945,0.1944,0.1943,0,0,0.2328,0.2328,0.2346,0.2366,0.2383,0.2377,0.2394,0.2383,0.2378,0.2397,0.2336,0.2343,0.2291,0.2272,0.2249,0.235,0.2291,0.2336,0.2435,0.2473,0.2494,0.2511,0.2577,0.2599,0.2342,0.2343,0.2343,0,0.2328,0.2352,0.2354,0.2391,0.2411,0.2406,0.2443,0.2451,0.244,0.2451,0.2423,0.2404,0.2357,0.2385,0.2424,0.2393,0.2408,0.2356,0.2499,0.2515,0.253,0.2592,0.2614,0.2352,0.2351,0.235,0.2349,0,0.2364,0.2393,0.2412,0.246,0.2489,0.2521,0.2549,0.2581,0.2582,0.2583,0.2622,0.2585,0.2568,0.2573,0.2525,0.261,0.259,0.2523,0.2445,0.2566,0.2624,0.2644,0.2366,0.2363,0.236,0.2357,0,0,0.2336,0.2418,0.2427,0.2461,0.253,0.255,0.2623,0.2674,0.2711,0.2734,0.2782,0.2786,0.2771,0.2747,0.2709,0.2749,0.2892,0.2692,0.2689,0.2763,0.3009,0.3131,0.3163,0.285,0.2853,0.2856,0.3027,0,0.2363,0.2441,0.2479,0.2555,0.2598,0.2642,0.2703,0.2755,0.2791,0.2843,0.2854,0.2877,0.2836,0.2839,0.2885,0.287,0.2942,0.2853,0.2874,0.2876,0.2973,0.3189,0.3113,0.3271,0.3045,0.3048,0.3051,0,0.2384,0.2439,0.2517,0.2604,0.2626,0.2669,0.2764,0.2819,0.2906,0.2936,0.299,0.299,0.3066,0.3001,0.3095,0.304,0.3053,0.3052,0.3057,0.3112,0.3034,0.3102,0.3313,0.3225,0.3079,0.3077,0.3075,0,0.2361,0.2458,0.2518,0.2551,0.2656,0.2691,0.2743,0.2836,0.2893,0.2995,0.3047,0.3122,0.3162,0.3199,0.3237,0.3165,0.3348,0.3232,0.3368,0.3375,0.3286,0.3282,0.3413,0.3323,0.3323,0.3322,0.3322,0,0.2372,0.2417,0.2504,0.254,0.26,0.2678,0.2751,0.2818,0.2928,0.3025,0.3082,0.3189,0.3213,0.3315,0.3317,0.3458,0.3423,0.3453,0.3453,0.3356,0.3357,0.325,0.3186,0.3329,0.3327,0.3326,0.3325,0,0.2332,0.2399,0.2462,0.2564,0.2589,0.2627,0.2737,0.2803,0.2911,0.3047,0.3091,0.3258,0.3438,0.3492,0.3585,0.3585,0.3603,0.3717,0.3638,0.3629,0.3669,0.3618,0.3612,0.3486,0.3902,0.3906,0.391,0,0.2318,0.235,0.2448,0.2484,0.2522,0.2591,0.2651,0.2772,0.2863,0.3114,0.3191,0.3416,0.3588,0.3818,0.39,0.4008,0.3796,0.3965,0.3823,0.3749,0.3687,0.3478,0.3351,0.3777,0.3779,0.3781,0.3783,0,0.2285,0.2315,0.2366,0.2438,0.2494,0.2557,0.2657,0.272,0.2913,0.3047,0.3282,0.3444,0.3775,0.391,0.4102,0.4137,0.3813,0.4014,0.3923,0.3643,0.343,0.328,0.3599,0.38,0.3798,0.3797,0.3796,0.3795,0.2238,0.2255,0.2322,0.2376,0.2444,0.2505,0.2523,0.2675,0.2807,0.3004,0.3252,0.3458,0.3781,0.4086,0.4112,0.4148,0.4021,0.4,0.3961,0.3767,0.3607,0.4032,0.424,0.4241,0.4242,0.4242,0.4243,0,0.2175,0.221,0.2263,0.2319,0.2351,0.2417,0.2517,0.2534,0.2656,0.2925,0.3114,0.3459,0.3694,0.3912,0.4146,0.4063,0.3782,0.3948,0.3567,0.345,0.3833,0.379,0.3929,0.3929,0.3929,0.3929,0.3929,0.3929,0.2145,0.2164,0.2192,0.2206,0.2245,0.2237,0.2262,0.2326,0.2474,0.2696,0.2902,0.3126,0.3611,0.4006,0.4054,0.3954,0.3581,0.351,0.3407,0.3637,0.3633,0.3629,0.3574,0.3665,0.3665,0.284,0.2835,0.2831]},{"header":{"parameterUnit":"m.s-1","parameterCategory":2,"la1":30.2991,"la2":30.254,"lo1":-89.0895,"lo2":-89.0444,"dy":0.0017,"dx":0.0017,"nx":28,"ny":28,"refTime":"2025-02-10T09:00:00:Z","depth":"0","parameterNumber":3,"parameterNumberName":"V-component_of_CURRENTS"},"data":[0,0,0,0,0,0,0,0,0,0,0,0,0,0,0,0,0,0,0,0,0,0,0,0,0,0,0,0,0,0,0,0,0,0,0,0,0,0,0,0,0,0,0,0,0,0,0,0,0,0,0,0,0,0,0,0,0,0,-0.0306,-0.0307,0,-0.0396,-0.0397,-0.0398,-0.0429,-0.0429,-0.0429,-0.0428,-0.0564,-0.0568,-0.0572,0,0,0,0,0,0,0,0,0,0,0,0,0,-0.02,-0.0202,-0.0306,-0.0307,-0.0308,-0.0396,-0.0397,-0.0398,-0.0429,-0.0429,-0.0428,-0.0428,-0.0563,-0.0567,-0.0572,0,0,0,0,0,0,0,0,0,0,0,0,0,-0.0264,-0.0202,-0.0306,-0.0334,-0.0338,-0.0395,-0.0397,-0.0398,-0.0429,-0.0429,-0.0428,-0.0428,-0.0561,-0.0567,-0.0573,-0.0619,0,0,-0.0591,-0.0593,0,0,0,0,0,0,0,0,-0.026,-0.0267,-0.0329,-0.0332,-0.0336,-0.0401,-0.041,-0.0475,-0.0429,-0.0394,-0.0428,-0.0428,-0.0514,-0.0524,-0.0541,-0.0625,-0.0631,-0.0591,-0.0595,-0.0597,-0.0599,0,0,0,0,0,0,0,-0.0255,-0.0264,-0.0341,-0.033,-0.0335,-0.0356,-0.0364,-0.0422,-0.0457,-0.0397,-0.04,-0.041,-0.0517,-0.0535,-0.0545,-0.0633,-0.0591,-0.0596,-0.06,-0.0602,-0.0794,-0.0796,0,0,0,0,0,0,-0.0244,-0.026,-0.0338,-0.0344,-0.0296,-0.0358,-0.0367,-0.0381,-0.0455,-0.0466,-0.0411,-0.0412,-0.0525,-0.0538,-0.055,-0.0612,-0.0597,-0.0603,-0.0606,-0.0793,-0.0795,-0.0796,0,0,0,0,0,0,-0.0241,-0.025,-0.0335,-0.0304,-0.0316,-0.036,-0.0375,-0.0383,-0.0402,-0.0465,-0.0476,-0.0422,-0.0526,-0.0541,-0.0606,-0.0617,-0.0605,-0.0611,-0.0791,-0.0793,-0.0796,-0.0735,0,0,0,0,0,0,-0.0238,-0.0248,-0.0253,-0.0303,-0.0317,-0.0362,-0.0376,-0.0385,-0.0409,-0.0411,-0.0479,-0.049,-0.0526,-0.0597,-0.0612,-0.0625,-0.0615,-0.0789,-0.0792,-0.0795,-0.0735,-0.0735,-0.0735,0,0,0,0,0,-0.0234,-0.0236,-0.0252,-0.0262,-0.0322,-0.0362,-0.0371,-0.0401,-0.041,-0.0417,-0.0469,-0.0488,-0.0627,-0.0603,-0.062,-0.0635,-0.0788,-0.0791,-0.0795,-0.0735,-0.0735,-0.0735,0,0,0,0,0,0,-0.0188,-0.0241,-0.026,-0.0278,-0.0315,-0.0367,-0.0375,-0.0401,-0.0448,-0.045,-0.0508,-0.0525,-0.0586,-0.0628,-0.06,-0.0704,-0.0711,-0.0718,-0.066,-0.0661,-0.0661,-0.0633,-0.062,0,0,0,0,0,-0.0183,-0.0199,-0.0253,-0.0266,-0.0282,-0.0331,-0.035,-0.0373,-0.0421,-0.044,-0.0492,-0.0554,-0.0616,-0.0649,-0.0707,-0.0764,-0.0799,-0.0789,-0.0788,-0.0788,-0.078,-0.0859,-0.0864,-0.0808,-0.0808,-0.0808,0,0,-0.0167,-0.0199,-0.0208,-0.0258,-0.0287,-0.0307,-0.0341,-0.0366,-0.0386,-0.045,-0.0494,-0.0555,-0.0633,-0.0692,-0.0724,-0.0726,-0.0821,-0.0792,-0.0791,-0.0783,-0.0863,-0.0868,-0.0873,-0.0811,-0.081,-0.081,0,0,-0.0141,-0.0174,-0.0178,-0.0208,-0.0253,-0.0286,-0.0293,-0.0349,-0.0376,-0.0431,-0.0484,-0.0552,-0.0642,-0.0699,-0.074,-0.0782,-0.0817,-0.0804,-0.0781,-0.0857,-0.0862,-0.0866,-0.0898,-0.0906,-0.0804,-0.0804,-0.0804,0,-0.0119,-0.0136,-0.0184,-0.0197,-0.0214,-0.0273,-0.0278,-0.032,-0.0391,-0.0419,-0.0436,-0.0582,-0.0645,-0.0726,-0.0739,-0.0779,-0.0813,-0.0766,-0.0854,-0.0859,-0.0865,-0.0897,-0.0906,-0.0802,-0.0802,-0.0802,-0.0803,0,-0.0101,-0.0113,-0.0116,-0.0153,-0.0179,-0.0192,-0.0253,-0.0286,-0.0329,-0.0378,-0.0462,-0.0556,-0.0638,-0.0679,-0.0721,-0.0797,-0.0804,-0.0839,-0.0841,-0.0866,-0.0899,-0.091,-0.0798,-0.0799,-0.08,-0.08,0,0,-0.0052,-0.0094,-0.0093,-0.0095,-0.0154,-0.0169,-0.0208,-0.0262,-0.0281,-0.037,-0.0407,-0.0534,-0.0584,-0.0635,-0.0707,-0.0779,-0.0846,-0.0818,-0.0824,-0.0826,-0.0985,-0.0912,-0.0917,-0.0896,-0.0898,-0.09,-0.0984,0,-0.0019,-0.0019,-0.0057,-0.0053,-0.0056,-0.0118,-0.0145,-0.0203,-0.0263,-0.0315,-0.0429,-0.0491,-0.0569,-0.0602,-0.0692,-0.0804,-0.0875,-0.0818,-0.0981,-0.0985,-0.0899,-0.0928,-0.0829,-0.089,-0.0994,-0.0996,-0.0997,0,0.0012,0.0009,0.0021,0.0003,-0.0003,-0.0014,-0.0058,-0.0091,-0.0186,-0.023,-0.0322,-0.0405,-0.0523,-0.0582,-0.0786,-0.0744,-0.0859,-0.0949,-0.0956,-0.0914,-0.0933,-0.0891,-0.0906,-0.1122,-0.1014,-0.1013,-0.1012,0,0.0077,0.0067,0.0083,0.0075,0.0039,0.0034,0.0011,-0.0065,-0.0072,-0.0172,-0.0179,-0.0347,-0.0392,-0.0587,-0.0761,-0.0784,-0.0965,-0.1025,-0.1069,-0.1064,-0.1024,-0.1012,-0.1246,-0.1177,-0.1177,-0.1176,-0.1176,0,0.0123,0.014,0.0119,0.013,0.0159,0.0104,0.0118,0.007,0.0024,0.0052,-0.0122,-0.0114,-0.0395,-0.0524,-0.0728,-0.09,-0.0944,-0.1059,-0.1087,-0.0998,-0.0983,-0.1204,-0.1338,-0.1179,-0.1179,-0.1178,-0.1178,0,0.0187,0.017,0.0198,0.0184,0.0191,0.021,0.0217,0.0234,0.0173,0.0209,0.0193,0.0062,-0.0078,-0.0349,-0.0624,-0.0805,-0.1112,-0.107,-0.0916,-0.0924,-0.1163,-0.1294,-0.1545,-0.163,-0.1145,-0.1144,-0.1143,0,0.0217,0.0237,0.0259,0.0295,0.0295,0.0322,0.0356,0.0314,0.0356,0.0353,0.0401,0.0281,0.0271,-0.0104,-0.0447,-0.0777,-0.1037,-0.094,-0.0983,-0.1157,-0.1328,-0.1437,-0.1499,-0.0911,-0.0908,-0.0906,-0.0904,0,0.0283,0.029,0.0318,0.0398,0.0447,0.0505,0.0559,0.0625,0.0622,0.0687,0.0787,0.0786,0.048,0.0236,-0.0228,-0.0492,-0.1056,-0.0899,-0.1151,-0.1214,-0.1282,-0.1379,-0.0856,-0.0883,-0.0885,-0.0887,-0.0888,-0.0889,0.0343,0.0382,0.0432,0.0513,0.0582,0.0698,0.0794,0.0891,0.1026,0.1186,0.1146,0.123,0.0805,0.0226,-0.0158,-0.0818,-0.0886,-0.1028,-0.1186,-0.1289,-0.1343,-0.0736,-0.0751,-0.0752,-0.0753,-0.0754,-0.0755,0,0.0429,0.0476,0.0551,0.0658,0.0775,0.0784,0.0947,0.1083,0.1322,0.1478,0.1615,0.1486,0.0971,0.0331,-0.0523,-0.101,-0.1237,-0.1325,-0.15,-0.1562,-0.1076,-0.1036,-0.1026,-0.1026,-0.1026,-0.1025,-0.1025,-0.1025,0.0477,0.0572,0.0613,0.0817,0.0909,0.1101,0.1224,0.1438,0.1598,0.1858,0.1947,0.1963,0.1485,-0.0058,-0.1138,-0.1424,-0.1832,-0.1873,-0.2119,-0.1827,-0.1814,-0.18,-0.1797,-0.1946,-0.1948,-0.2502,-0.2508,-0.2513]}],[{"header":{"parameterUnit":"m.s-1","parameterCategory":2,"la1":30.2991,"la2":30.254,"lo1":-89.0895,"lo2":-89.0444,"dy":0.0017,"dx":0.0017,"nx":28,"ny":28,"refTime":"2025-02-10T09:00:00:Z","depth":"2","parameterNumber":2,"parameterNumberName":"U-component_of_CURRENTS"},"data":[0,0,0,0,0,0,0,0,0,0,0,0,0,0,0,0,0,0,0,0,0,0,0,0,0,0,0,0,0,0,0,0,0,0,0,0,0,0,0,0,0,0,0,0,0,0,0,0,0,0,0,0,0,0,0,0,0,0,0.2281,0.2282,0,0.2349,0.2349,0.235,0.2399,0.2399,0.24,0.24,0.2544,0.2547,0.255,0,0,0,0,0,0,0,0,0,0,0,0,0,0.2208,0.2209,0.2281,0.2282,0.2283,0.2349,0.2349,0.235,0.2398,0.2399,0.24,0.2401,0.2542,0.2546,0.255,0,0,0,0,0,0,0,0,0,0,0,0,0,0.2252,0.2209,0.2281,0.2317,0.2321,0.2348,0.2349,0.235,0.2398,0.2399,0.24,0.2401,0.2541,0.2546,0.2551,0.2562,0,0,0.2565,0.2568,0,0,0,0,0,0,0,0,0.2249,0.2254,0.2311,0.2315,0.2319,0.2368,0.2376,0.2426,0.2398,0.2367,0.24,0.2401,0.2493,0.2502,0.2508,0.2569,0.2575,0.2566,0.2569,0.2571,0.2572,0,0,0,0,0,0,0,0.2246,0.2252,0.2306,0.2312,0.2317,0.2335,0.2342,0.2385,0.2423,0.2369,0.2374,0.2385,0.2495,0.2503,0.2512,0.2577,0.2566,0.257,0.2573,0.2575,0.2735,0.2736,0,0,0,0,0,0,0.2241,0.2249,0.2304,0.2308,0.2289,0.2335,0.2343,0.235,0.2421,0.2433,0.2384,0.2387,0.2494,0.2506,0.2517,0.2632,0.2571,0.2575,0.2578,0.2733,0.2735,0.2737,0,0,0,0,0,0,0.2239,0.2245,0.2301,0.2282,0.2291,0.2336,0.2343,0.2351,0.2381,0.2432,0.2445,0.2409,0.2495,0.251,0.2587,0.2634,0.2578,0.2582,0.2732,0.2734,0.2736,0.28,0,0,0,0,0,0,0.2236,0.2244,0.225,0.2281,0.2292,0.2338,0.2343,0.2351,0.2386,0.2391,0.2457,0.247,0.2497,0.2579,0.2591,0.264,0.2586,0.273,0.2733,0.2735,0.2796,0.2804,0.281,0,0,0,0,0,0.2233,0.2246,0.225,0.2257,0.2298,0.2339,0.2346,0.2379,0.2386,0.2408,0.2457,0.2469,0.2603,0.2585,0.2598,0.265,0.2729,0.2732,0.2735,0.2793,0.2802,0.281,0,0,0,0,0,0,0.2221,0.2253,0.2258,0.228,0.2314,0.2349,0.2371,0.2388,0.2439,0.245,0.2492,0.2509,0.2588,0.2605,0.2583,0.2699,0.2666,0.2672,0.2705,0.2714,0.2721,0.272,0.259,0,0,0,0,0,0.2218,0.2235,0.2269,0.2288,0.2304,0.2337,0.2358,0.2381,0.2427,0.245,0.249,0.2542,0.2605,0.265,0.269,0.2762,0.2789,0.28,0.2807,0.2813,0.282,0.2911,0.2928,0.2746,0.2746,0.2746,0,0,0.2216,0.2238,0.2246,0.2286,0.2312,0.2349,0.2353,0.2393,0.2437,0.2459,0.2528,0.2564,0.2626,0.2705,0.2742,0.2734,0.2877,0.2817,0.2823,0.2826,0.2917,0.2935,0.2951,0.2748,0.2748,0.2748,0,0,0.2228,0.2243,0.2263,0.2296,0.2341,0.2366,0.2382,0.2422,0.2457,0.252,0.2554,0.2622,0.2697,0.2763,0.2806,0.2877,0.2902,0.2886,0.2943,0.3032,0.3048,0.3062,0.3114,0.3132,0.2903,0.2903,0.2903,0,0.2224,0.2256,0.2278,0.2314,0.2349,0.2377,0.2419,0.2459,0.252,0.2566,0.2551,0.2687,0.2729,0.2864,0.2887,0.2897,0.2937,0.2909,0.3044,0.3058,0.3072,0.3121,0.3141,0.2907,0.2906,0.2906,0.2906,0,0.2255,0.2287,0.2307,0.236,0.2401,0.2441,0.2498,0.2544,0.2576,0.262,0.273,0.2782,0.2877,0.2896,0.2919,0.3049,0.304,0.3034,0.3025,0.3095,0.3141,0.3161,0.2912,0.291,0.2909,0.2908,0,0,0.2226,0.231,0.2317,0.2357,0.2431,0.2468,0.2551,0.264,0.2709,0.276,0.2868,0.2956,0.2983,0.3032,0.3072,0.3141,0.3265,0.3134,0.3137,0.3189,0.3449,0.3366,0.3379,0.3293,0.3297,0.33,0.344,0,0.2244,0.2312,0.2358,0.2437,0.2478,0.2546,0.2623,0.2711,0.2779,0.2885,0.2969,0.307,0.3043,0.3102,0.3174,0.3244,0.3321,0.3226,0.3368,0.3372,0.3295,0.3401,0.3151,0.3248,0.3459,0.3462,0.3465,0,0.2257,0.2305,0.2378,0.2486,0.2513,0.2569,0.2702,0.278,0.2935,0.2995,0.3111,0.3174,0.3311,0.3265,0.3426,0.3371,0.3422,0.3452,0.3458,0.3372,0.3326,0.3213,0.3276,0.3497,0.3495,0.3492,0.349,0,0.222,0.2322,0.2382,0.2417,0.2539,0.26,0.2675,0.2812,0.2899,0.3081,0.3155,0.3312,0.34,0.3492,0.3555,0.3515,0.371,0.3667,0.3639,0.3632,0.3441,0.341,0.3794,0.3794,0.3794,0.3793,0.3793,0,0.2218,0.2265,0.2371,0.2402,0.2489,0.259,0.2701,0.2798,0.2966,0.3077,0.3213,0.3316,0.3461,0.3582,0.3625,0.3695,0.378,0.3672,0.3681,0.3452,0.3423,0.3647,0.3628,0.3799,0.3797,0.3796,0.3796,0,0.2165,0.2233,0.2301,0.2426,0.2469,0.2532,0.2694,0.2777,0.2933,0.3089,0.3158,0.3361,0.3501,0.3622,0.3782,0.377,0.3852,0.3858,0.3562,0.3532,0.3693,0.3676,0.3842,0.3841,0.384,0.3839,0.3838,0,0.2144,0.2175,0.2287,0.2326,0.2383,0.2491,0.2564,0.274,0.2832,0.309,0.316,0.3368,0.3467,0.3666,0.3724,0.3815,0.3864,0.3614,0.3485,0.3716,0.3708,0.3692,0.3677,0.3257,0.3251,0.3247,0.3243,0,0.2102,0.2138,0.2189,0.2264,0.2337,0.2415,0.2537,0.2597,0.281,0.2924,0.3084,0.3193,0.3411,0.3401,0.3542,0.3551,0.3574,0.3522,0.3894,0.3271,0.3172,0.3161,0.3164,0.3203,0.3207,0.321,0.3212,0.3214,0.2055,0.2072,0.2137,0.2198,0.2268,0.2315,0.2345,0.2471,0.2573,0.2731,0.2905,0.2991,0.3126,0.3194,0.3165,0.3173,0.3392,0.3262,0.3273,0.3289,0.3185,0.3088,0.3082,0.3085,0.3088,0.309,0.3093,0,0.1993,0.2022,0.2074,0.2128,0.2148,0.223,0.2309,0.2314,0.236,0.254,0.2649,0.2546,0.2595,0.2726,0.2689,0.2733,0.2676,0.2624,0.2525,0.257,0.2609,0.2464,0.2174,0.217,0.2167,0.2163,0,0,0.1963,0.197,0.1991,0.1989,0.2032,0.2026,0.2037,0.2056,0.2144,0.216,0.2219,0.2473,0.2641,0.2347,0.2362,0.2252,0.2371,0.2173,0.2925,0.2852,0.2885,0.3014,0.2849,0,0,0,0,0]},{"header":{"parameterUnit":"m.s-1","parameterCategory":2,"la1":30.2991,"la2":30.254,"lo1":-89.0895,"lo2":-89.0444,"dy":0.0017,"dx":0.0017,"nx":28,"ny":28,"refTime":"2025-02-10T09:00:00:Z","depth":"2","parameterNumber":3,"parameterNumberName":"V-component_of_CURRENTS"},"data":[0,0,0,0,0,0,0,0,0,0,0,0,0,0,0,0,0,0,0,0,0,0,0,0,0,0,0,0,0,0,0,0,0,0,0,0,0,0,0,0,0,0,0,0,0,0,0,0,0,0,0,0,0,0,0,0,0,0,-0.0175,-0.0175,0,-0.0238,-0.0239,-0.024,-0.0298,-0.0299,-0.03,-0.03,-0.0433,-0.0435,-0.0438,0,0,0,0,0,0,0,0,0,0,0,0,0,-0.0101,-0.0102,-0.0175,-0.0176,-0.0176,-0.0238,-0.0239,-0.024,-0.0298,-0.0299,-0.03,-0.0301,-0.0432,-0.0435,-0.0438,0,0,0,0,0,0,0,0,0,0,0,0,0,-0.0145,-0.0102,-0.0175,-0.0213,-0.0218,-0.0238,-0.0239,-0.024,-0.0298,-0.0299,-0.03,-0.0301,-0.043,-0.0435,-0.0439,-0.0441,0,0,-0.0452,-0.0453,0,0,0,0,0,0,0,0,-0.0142,-0.0147,-0.0207,-0.0211,-0.0215,-0.0262,-0.0262,-0.0311,-0.0297,-0.0266,-0.03,-0.0302,-0.0382,-0.039,-0.0397,-0.0448,-0.0453,-0.0452,-0.0454,-0.0456,-0.0457,0,0,0,0,0,0,0,-0.0139,-0.0145,-0.0199,-0.0208,-0.0213,-0.0227,-0.0234,-0.0271,-0.0317,-0.0269,-0.0274,-0.0282,-0.0384,-0.0393,-0.0401,-0.0455,-0.0452,-0.0456,-0.0458,-0.046,-0.0535,-0.0534,0,0,0,0,0,0,-0.0132,-0.0142,-0.0197,-0.0201,-0.0182,-0.0227,-0.0236,-0.0245,-0.0316,-0.0327,-0.0281,-0.0284,-0.0385,-0.0396,-0.0406,-0.0437,-0.0456,-0.046,-0.0463,-0.0535,-0.0535,-0.0534,0,0,0,0,0,0,-0.013,-0.0136,-0.0195,-0.0173,-0.0182,-0.0227,-0.0238,-0.0246,-0.0262,-0.0324,-0.0337,-0.029,-0.0386,-0.04,-0.0441,-0.0442,-0.0462,-0.0466,-0.0536,-0.0535,-0.0534,-0.0484,0,0,0,0,0,0,-0.0127,-0.0135,-0.0137,-0.0173,-0.0183,-0.0204,-0.0237,-0.0246,-0.0265,-0.0271,-0.0336,-0.0349,-0.0388,-0.0434,-0.0445,-0.0448,-0.0469,-0.0536,-0.0535,-0.0534,-0.0487,-0.0482,-0.0478,0,0,0,0,0,-0.0125,-0.0122,-0.0137,-0.0144,-0.0185,-0.0203,-0.0209,-0.0245,-0.0265,-0.0265,-0.0312,-0.0347,-0.0436,-0.0437,-0.045,-0.0454,-0.0537,-0.0536,-0.0535,-0.0489,-0.0483,-0.0478,0,0,0,0,0,0,-0.009,-0.0129,-0.0146,-0.0155,-0.0176,-0.0214,-0.0217,-0.0241,-0.0276,-0.0284,-0.0344,-0.036,-0.0394,-0.0426,-0.0427,-0.0471,-0.049,-0.0492,-0.0451,-0.0446,-0.0442,-0.0406,-0.0473,0,0,0,0,0,-0.0082,-0.0091,-0.0128,-0.0133,-0.0142,-0.0178,-0.019,-0.0212,-0.0248,-0.0265,-0.0309,-0.0355,-0.0396,-0.0423,-0.0458,-0.0485,-0.0512,-0.0494,-0.0489,-0.0486,-0.0463,-0.0529,-0.0529,-0.053,-0.053,-0.053,0,0,-0.007,-0.0092,-0.0097,-0.0126,-0.0145,-0.0144,-0.0188,-0.02,-0.0201,-0.0274,-0.0289,-0.034,-0.0398,-0.0427,-0.0445,-0.0459,-0.0494,-0.0484,-0.0481,-0.046,-0.0528,-0.0528,-0.0528,-0.0529,-0.0529,-0.0529,0,0,-0.0039,-0.0067,-0.0061,-0.0074,-0.0099,-0.0119,-0.0121,-0.0156,-0.0174,-0.0196,-0.025,-0.0295,-0.0353,-0.0395,-0.0424,-0.0414,-0.0466,-0.0432,-0.0388,-0.0453,-0.0454,-0.0455,-0.0465,-0.0467,-0.0434,-0.0434,-0.0434,0,-0.0021,-0.0019,-0.0059,-0.0052,-0.0053,-0.0104,-0.0087,-0.0109,-0.0152,-0.0161,-0.0192,-0.0277,-0.0332,-0.0373,-0.0373,-0.0404,-0.0435,-0.0408,-0.0448,-0.045,-0.0452,-0.0463,-0.0466,-0.0431,-0.0432,-0.0432,-0.0432,0,0.0016,0.002,0.0025,0.0018,0.0011,0.0017,-0.0016,-0.0027,-0.0058,-0.0085,-0.0127,-0.0206,-0.0263,-0.0289,-0.0332,-0.0371,-0.0384,-0.0434,-0.0462,-0.0449,-0.046,-0.0465,-0.0428,-0.0429,-0.0429,-0.043,0,0,0.0055,0.0053,0.0055,0.0073,0.0051,0.0054,0.0054,0.0043,0.0054,-0.0012,-0.0021,-0.0104,-0.0162,-0.0198,-0.0271,-0.0321,-0.0363,-0.0379,-0.0384,-0.0387,-0.0473,-0.0463,-0.0467,-0.0438,-0.0439,-0.044,-0.0467,0,0.01,0.0139,0.012,0.0163,0.0184,0.0148,0.0159,0.014,0.0112,0.009,-0.0008,-0.0043,-0.0127,-0.0161,-0.0234,-0.0328,-0.0375,-0.0347,-0.0485,-0.0487,-0.0482,-0.0473,-0.0456,-0.0479,-0.0472,-0.0473,-0.0473,0,0.0145,0.0168,0.0217,0.0249,0.0255,0.0266,0.0283,0.0283,0.0236,0.0208,0.0135,0.0061,-0.0029,-0.0108,-0.0263,-0.0248,-0.0351,-0.042,-0.0425,-0.0433,-0.0487,-0.0497,-0.0488,-0.0481,-0.048,-0.048,-0.0479,0,0.0202,0.024,0.0285,0.0293,0.0313,0.0328,0.0331,0.0318,0.0336,0.0274,0.0274,0.0144,0.0086,-0.0071,-0.0228,-0.0256,-0.0383,-0.045,-0.0526,-0.0524,-0.0541,-0.054,-0.0556,-0.0556,-0.0556,-0.0556,-0.0555,0,0.0261,0.0299,0.0315,0.0341,0.0405,0.0387,0.044,0.043,0.0417,0.0454,0.0322,0.0326,0.0089,-0.0017,-0.0188,-0.0353,-0.0366,-0.0497,-0.0537,-0.0519,-0.0516,-0.0549,-0.0548,-0.0557,-0.0556,-0.0556,-0.0556,0,0.0315,0.0322,0.0382,0.0416,0.0432,0.0471,0.0513,0.0556,0.0531,0.0568,0.0552,0.0458,0.0334,0.012,-0.01,-0.027,-0.0441,-0.05,-0.043,-0.0461,-0.0543,-0.0539,-0.0583,-0.0583,-0.0583,-0.0583,-0.0583,0,0.0345,0.038,0.0441,0.0483,0.0498,0.055,0.0598,0.0602,0.0657,0.0671,0.0703,0.0608,0.0552,0.0243,-0.0058,-0.0336,-0.0391,-0.0495,-0.0555,-0.0514,-0.0549,-0.0545,-0.0541,-0.0548,-0.0548,-0.0547,-0.0547,0,0.0408,0.0422,0.0471,0.056,0.0618,0.0693,0.076,0.0826,0.0849,0.0885,0.0935,0.0896,0.0617,0.0344,-0.0034,-0.0233,-0.0455,-0.0498,-0.0496,-0.0539,-0.0483,-0.0517,-0.0514,-0.0545,-0.0545,-0.0546,-0.0546,-0.0546,0.0452,0.0498,0.0558,0.0644,0.072,0.0825,0.0897,0.0982,0.1075,0.1144,0.1114,0.1064,0.0753,0.028,-0.0061,-0.042,-0.0416,-0.0553,-0.0553,-0.0554,-0.0541,-0.0488,-0.0545,-0.0545,-0.0545,-0.0545,-0.0545,0,0.0507,0.0556,0.064,0.074,0.0832,0.0863,0.1003,0.1073,0.1195,0.1268,0.1289,0.1015,0.0705,0.0352,-0.0178,-0.0498,-0.0549,-0.0591,-0.0589,-0.0588,-0.0588,-0.0578,-0.0591,-0.0592,-0.0593,-0.0594,0,0,0.0536,0.0618,0.0659,0.081,0.0888,0.1013,0.1097,0.1207,0.1287,0.1351,0.1339,0.1269,0.0839,0.0459,0.0018,-0.0284,-0.0366,-0.0349,-0.0281,-0.0227,-0.0223,-0.0536,-0.0515,0,0,0,0,0]}],[{"header":{"parameterUnit":"m.s-1","parameterCategory":2,"la1":30.2991,"la2":30.254,"lo1":-89.0895,"lo2":-89.0444,"dy":0.0017,"dx":0.0017,"nx":28,"ny":28,"refTime":"2025-02-10T09:00:00:Z","depth":"4","parameterNumber":2,"parameterNumberName":"U-component_of_CURRENTS"},"data":[0,0,0,0,0,0,0,0,0,0,0,0,0,0,0,0,0,0,0,0,0,0,0,0,0,0,0,0,0,0,0,0,0,0,0,0,0,0,0,0,0,0,0,0,0,0,0,0,0,0,0,0,0,0,0,0,0,0,0.1568,0.1568,0,0.1639,0.164,0.1641,0.1699,0.17,0.1701,0.1701,0.1792,0.1793,0.1795,0,0,0,0,0,0,0,0,0,0,0,0,0,0.1478,0.148,0.1568,0.1569,0.1569,0.1639,0.164,0.1641,0.1699,0.17,0.1701,0.1701,0.1791,0.1793,0.1795,0,0,0,0,0,0,0,0,0,0,0,0,0,0.153,0.148,0.1567,0.1607,0.1611,0.1639,0.164,0.1641,0.1699,0.17,0.1701,0.1702,0.179,0.1793,0.1796,0.1793,0,0,0.1804,0.1805,0,0,0,0,0,0,0,0,0.1527,0.1533,0.16,0.1605,0.1609,0.1662,0.1642,0.1693,0.1699,0.1665,0.1701,0.1702,0.1749,0.1756,0.1766,0.1797,0.1801,0.1804,0.1806,0.1807,0.1808,0,0,0,0,0,0,0,0.1523,0.153,0.1596,0.1601,0.1607,0.162,0.1629,0.1652,0.1701,0.1668,0.1673,0.1681,0.1752,0.1763,0.1769,0.1803,0.1804,0.1807,0.1808,0.1809,0.1943,0.1945,0,0,0,0,0,0,0.1514,0.1527,0.1593,0.1598,0.157,0.1621,0.163,0.1644,0.1701,0.171,0.168,0.1683,0.1758,0.1765,0.1772,0.1862,0.1807,0.181,0.1811,0.1941,0.1944,0.1946,0,0,0,0,0,0,0.1512,0.152,0.159,0.1564,0.1574,0.1622,0.1636,0.1644,0.1688,0.1709,0.172,0.1718,0.1759,0.1768,0.1821,0.1862,0.1811,0.1813,0.1939,0.1942,0.1945,0.1984,0,0,0,0,0,0,0.1509,0.1519,0.1542,0.1563,0.1575,0.163,0.1635,0.1645,0.1689,0.1695,0.1745,0.1752,0.1761,0.1817,0.1824,0.1865,0.1815,0.1937,0.194,0.1944,0.198,0.1988,0.1994,0,0,0,0,0,0.1506,0.1528,0.1543,0.1552,0.16,0.1631,0.164,0.1675,0.1691,0.1717,0.1749,0.1753,0.1845,0.182,0.1828,0.1871,0.1935,0.1939,0.1943,0.1977,0.1986,0.1994,0,0,0,0,0,0,0.1503,0.1537,0.1553,0.1586,0.1618,0.1642,0.1675,0.1692,0.1737,0.1754,0.177,0.178,0.1843,0.1852,0.1824,0.1922,0.1894,0.19,0.1917,0.1926,0.1932,0.1931,0.1818,0,0,0,0,0,0.1511,0.1542,0.1569,0.1601,0.162,0.1652,0.1676,0.1699,0.1732,0.1755,0.1787,0.1826,0.1861,0.1889,0.1919,0.1968,0.198,0.2005,0.2012,0.2018,0.2023,0.2075,0.2087,0.196,0.196,0.196,0,0,0.1518,0.1543,0.1561,0.1604,0.1634,0.1665,0.1671,0.1716,0.175,0.1757,0.1825,0.1851,0.1879,0.1937,0.1967,0.1954,0.2061,0.2023,0.2028,0.203,0.2081,0.2093,0.2104,0.1963,0.1962,0.1962,0,0,0.1536,0.1573,0.16,0.163,0.1679,0.1698,0.1717,0.176,0.1794,0.1849,0.1866,0.1916,0.1973,0.2,0.2019,0.2083,0.2094,0.2105,0.2143,0.2194,0.2204,0.2214,0.2243,0.2255,0.2112,0.2112,0.2112,0,0.1545,0.1582,0.1614,0.1647,0.1674,0.1715,0.1745,0.1784,0.1841,0.1872,0.1883,0.1979,0.2001,0.2065,0.2091,0.2099,0.2125,0.2105,0.2202,0.2211,0.222,0.2248,0.2261,0.2114,0.2114,0.2114,0.2113,0,0.1571,0.1614,0.1636,0.1689,0.1722,0.1761,0.1806,0.1857,0.19,0.1932,0.2016,0.2051,0.2108,0.2129,0.213,0.2212,0.2208,0.22,0.2175,0.2235,0.2261,0.2273,0.2118,0.2117,0.2116,0.2115,0,0,0.155,0.1637,0.1647,0.1677,0.1748,0.1771,0.1841,0.1902,0.1952,0.202,0.2082,0.2151,0.2179,0.2202,0.2222,0.2268,0.2349,0.2269,0.227,0.2289,0.2459,0.2322,0.2322,0.2365,0.2367,0.2369,0.2451,0,0.1563,0.162,0.1665,0.1724,0.1754,0.1817,0.1871,0.1935,0.2001,0.2074,0.2132,0.2201,0.2206,0.2245,0.2294,0.2338,0.2384,0.2327,0.2407,0.2408,0.2271,0.2332,0.2377,0.246,0.2463,0.2465,0.2466,0,0.1563,0.1604,0.166,0.1737,0.1758,0.1804,0.1896,0.1955,0.2063,0.2119,0.2204,0.2248,0.2338,0.2327,0.2442,0.2411,0.2444,0.2469,0.2472,0.2337,0.2293,0.239,0.2488,0.2486,0.2485,0.2483,0.2482,0,0.1508,0.1595,0.164,0.1667,0.1762,0.1808,0.1869,0.1972,0.203,0.2161,0.222,0.232,0.239,0.2452,0.2513,0.2493,0.2625,0.2596,0.2501,0.2491,0.2571,0.256,0.2674,0.2674,0.2674,0.2673,0.2673,0,0.1481,0.152,0.1624,0.1646,0.1703,0.1784,0.1866,0.1944,0.2061,0.2132,0.2246,0.2311,0.2431,0.2512,0.2545,0.2562,0.2657,0.2516,0.2508,0.2586,0.2576,0.258,0.2568,0.2676,0.2676,0.2675,0.2675,0,0.1409,0.1482,0.1535,0.1643,0.1679,0.1722,0.1854,0.1911,0.2042,0.2142,0.2188,0.2336,0.2443,0.2535,0.2642,0.2593,0.2624,0.2606,0.269,0.2684,0.2446,0.2436,0.2495,0.2491,0.2488,0.2485,0.2482,0,0.1374,0.1397,0.1513,0.1546,0.1602,0.1687,0.1745,0.1884,0.1945,0.2136,0.2165,0.2319,0.2406,0.2448,0.2552,0.2606,0.2585,0.2578,0.2498,0.2444,0.2431,0.2426,0.242,0.2477,0.2476,0.2475,0.2474,0,0.13,0.1357,0.1403,0.1474,0.1539,0.16,0.1696,0.1723,0.1887,0.2023,0.2101,0.2168,0.2285,0.2362,0.243,0.246,0.2565,0.2541,0.2547,0.2472,0.2423,0.2412,0.2411,0.2462,0.2464,0.2465,0.2466,0,0.1247,0.1261,0.1334,0.1383,0.146,0.149,0.1554,0.163,0.1705,0.1909,0.1932,0.2109,0.2255,0.2288,0.2347,0.2372,0.2337,0.226,0.228,0.2294,0.2193,0.2098,0.2039,0,0,0,0,0,0.1183,0.1194,0.1237,0.1285,0.1358,0.1403,0.1509,0.1579,0.1735,0.1744,0.1832,0.1931,0.203,0.2118,0.2107,0.2264,0.2344,0.2241,0.2264,0.2396,0.241,0.2309,0,0,0,0,0,0,0.1141,0.118,0.1201,0.1195,0.1214,0.128,0.1343,0.1447,0.1456,0.1624,0.1686,0.1824,0.1944,0.2022,0.2072,0.2101,0.208,0.2353,0.2348,0.2388,0.2401,0.2412,0.2313,0,0,0,0,0]},{"header":{"parameterUnit":"m.s-1","parameterCategory":2,"la1":30.2991,"la2":30.254,"lo1":-89.0895,"lo2":-89.0444,"dy":0.0017,"dx":0.0017,"nx":28,"ny":28,"refTime":"2025-02-10T09:00:00:Z","depth":"4","parameterNumber":3,"parameterNumberName":"V-component_of_CURRENTS"},"data":[0,0,0,0,0,0,0,0,0,0,0,0,0,0,0,0,0,0,0,0,0,0,0,0,0,0,0,0,0,0,0,0,0,0,0,0,0,0,0,0,0,0,0,0,0,0,0,0,0,0,0,0,0,0,0,0,0,0,-0.0079,-0.008,0,-0.0119,-0.012,-0.012,-0.0159,-0.016,-0.016,-0.0161,-0.0219,-0.022,-0.0221,0,0,0,0,0,0,0,0,0,0,0,0,0,-0.0034,-0.0035,-0.0079,-0.008,-0.008,-0.0119,-0.012,-0.012,-0.0159,-0.016,-0.016,-0.0161,-0.0219,-0.022,-0.0221,0,0,0,0,0,0,0,0,0,0,0,0,0,-0.0061,-0.0035,-0.0079,-0.0105,-0.0107,-0.0119,-0.012,-0.012,-0.0159,-0.016,-0.0161,-0.0161,-0.0218,-0.022,-0.0222,-0.0216,0,0,-0.0226,-0.0227,0,0,0,0,0,0,0,0,-0.006,-0.0063,-0.01,-0.0103,-0.0106,-0.0135,-0.0125,-0.0153,-0.0159,-0.0139,-0.0161,-0.0162,-0.0192,-0.0196,-0.0201,-0.0218,-0.0221,-0.0227,-0.0228,-0.0228,-0.0229,0,0,0,0,0,0,0,-0.0058,-0.0062,-0.0095,-0.0101,-0.0104,-0.0113,-0.0118,-0.013,-0.0161,-0.0141,-0.0144,-0.0148,-0.0194,-0.02,-0.0203,-0.0222,-0.0227,-0.0228,-0.0229,-0.023,-0.0242,-0.0241,0,0,0,0,0,0,-0.0053,-0.006,-0.0094,-0.0096,-0.0085,-0.0113,-0.0118,-0.0125,-0.0161,-0.0167,-0.0148,-0.015,-0.0197,-0.0201,-0.0205,-0.0192,-0.0228,-0.023,-0.0231,-0.0242,-0.0241,-0.0241,0,0,0,0,0,0,-0.0052,-0.0055,-0.0092,-0.0079,-0.0084,-0.0113,-0.012,-0.0125,-0.0136,-0.0165,-0.0172,-0.0153,-0.0197,-0.0203,-0.0215,-0.0195,-0.023,-0.0232,-0.0243,-0.0242,-0.0241,-0.0171,0,0,0,0,0,0,-0.005,-0.0055,-0.0056,-0.0079,-0.0085,-0.0095,-0.0119,-0.0125,-0.0137,-0.0141,-0.0172,-0.0178,-0.0198,-0.0212,-0.0216,-0.0198,-0.0233,-0.0244,-0.0243,-0.0241,-0.0174,-0.0168,-0.0162,0,0,0,0,0,-0.0048,-0.0045,-0.0056,-0.006,-0.0087,-0.0095,-0.0099,-0.0122,-0.0136,-0.0135,-0.0157,-0.0178,-0.0208,-0.0213,-0.0218,-0.0199,-0.0244,-0.0243,-0.0241,-0.0177,-0.0169,-0.0162,0,0,0,0,0,0,-0.0025,-0.0049,-0.0062,-0.0067,-0.0079,-0.0102,-0.0103,-0.0119,-0.0135,-0.014,-0.0171,-0.0177,-0.018,-0.0201,-0.0206,-0.02,-0.0229,-0.0228,-0.0178,-0.0171,-0.0165,-0.0152,-0.0234,0,0,0,0,0,-0.002,-0.0025,-0.0048,-0.005,-0.0056,-0.0079,-0.0086,-0.0101,-0.0118,-0.0126,-0.0148,-0.0168,-0.0176,-0.0183,-0.0198,-0.0194,-0.0219,-0.0186,-0.018,-0.0175,-0.0168,-0.0184,-0.0178,-0.0236,-0.0236,-0.0236,0,0,-0.0011,-0.0025,-0.0029,-0.0045,-0.0058,-0.0051,-0.0085,-0.0092,-0.0082,-0.0129,-0.0125,-0.0149,-0.0171,-0.0167,-0.0169,-0.0183,-0.0174,-0.0173,-0.0168,-0.0165,-0.0182,-0.0176,-0.0171,-0.0235,-0.0235,-0.0235,0,0,0.0013,-0.0009,-0.0001,-0.0007,-0.0022,-0.0034,-0.0034,-0.0055,-0.0061,-0.0064,-0.0089,-0.0102,-0.0122,-0.0127,-0.0134,-0.0104,-0.0143,-0.0111,-0.0068,-0.0083,-0.0078,-0.0074,-0.0105,-0.0104,-0.0106,-0.0106,-0.0106,0,0.0025,0.0032,0.0001,0.0012,0.0018,-0.0021,0.0,-0.001,-0.0031,-0.0025,-0.0056,-0.0074,-0.0099,-0.0079,-0.0073,-0.0089,-0.0112,-0.0091,-0.0074,-0.0071,-0.0068,-0.01,-0.0101,-0.0102,-0.0103,-0.0103,-0.0104,0,0.0058,0.0066,0.0072,0.0074,0.0076,0.0085,0.0071,0.007,0.0051,0.0041,0.0044,0.0005,-0.0005,-0.0014,-0.0037,-0.002,-0.0049,-0.0065,-0.0089,-0.0058,-0.0094,-0.0096,-0.0097,-0.0099,-0.01,-0.0101,0,0,0.0083,0.0094,0.0097,0.0119,0.0112,0.0122,0.0138,0.015,0.0171,0.0134,0.0159,0.013,0.0098,0.0089,0.0058,0.0041,0.0031,-0.0002,-0.0004,-0.0028,-0.0014,-0.0059,-0.0065,0.0018,0.0018,0.0018,-0.005,0,0.0121,0.0163,0.0157,0.0206,0.023,0.0213,0.024,0.0244,0.0232,0.0242,0.02,0.0203,0.0142,0.0137,0.0111,0.0055,0.0031,0.005,-0.0045,-0.0048,-0.0088,-0.0066,0.0019,-0.0051,-0.0051,-0.0052,-0.0052,0,0.0159,0.0185,0.0239,0.0287,0.0297,0.0319,0.0358,0.0378,0.0377,0.0367,0.0349,0.0308,0.0279,0.0219,0.0134,0.0147,0.0073,0.0019,0.0015,-0.0051,-0.0095,-0.0089,-0.0055,-0.0055,-0.0055,-0.0054,-0.0054,0,0.0199,0.0247,0.0297,0.031,0.0351,0.0378,0.0401,0.0417,0.0449,0.0445,0.0452,0.0404,0.0376,0.0288,0.0156,0.0148,0.0052,0.0029,-0.0082,-0.0087,-0.0057,-0.0061,-0.0029,-0.0029,-0.0028,-0.0028,-0.0028,0,0.0243,0.0284,0.0321,0.0348,0.0421,0.0432,0.0502,0.0513,0.0541,0.0581,0.0518,0.0516,0.0391,0.031,0.0191,0.0044,0.0074,-0.0072,-0.0101,-0.0028,-0.0028,-0.0059,-0.0062,-0.0031,-0.003,-0.003,-0.0029,0,0.0275,0.0295,0.036,0.0416,0.044,0.0492,0.0566,0.0615,0.0627,0.0671,0.0671,0.0606,0.0489,0.0351,0.02,0.0089,-0.0042,-0.0103,-0.002,-0.0045,-0.0181,-0.0179,-0.0224,-0.0226,-0.0228,-0.0229,-0.0231,0,0.0294,0.0329,0.0407,0.0449,0.0475,0.0551,0.0607,0.0652,0.0698,0.0715,0.0734,0.0644,0.0572,0.0337,0.0177,-0.0048,-0.009,-0.016,-0.0168,-0.0174,-0.0198,-0.0194,-0.019,-0.0233,-0.0234,-0.0234,-0.0235,0,0.0333,0.0356,0.0406,0.0492,0.0557,0.0639,0.0712,0.0753,0.0799,0.0813,0.0781,0.0655,0.0519,0.0326,0.0148,-0.0016,-0.0111,-0.0179,-0.0176,-0.0185,-0.0185,-0.0207,-0.0201,-0.0241,-0.024,-0.0239,-0.0239,0,0.0356,0.0395,0.0455,0.0531,0.0615,0.069,0.0735,0.078,0.0826,0.0838,0.082,0.0676,0.0597,0.0341,0.0179,0.0011,-0.0041,-0.0098,-0.0101,-0.0097,-0.005,-0.0031,-0.0059,0,0,0,0,0,0.0376,0.0415,0.0489,0.0569,0.0651,0.0697,0.0789,0.0825,0.0866,0.0851,0.0839,0.0708,0.0458,0.0355,0.0179,0.0127,-0.0079,-0.0087,-0.0148,-0.0274,-0.0267,-0.0239,0,0,0,0,0,0,0.0387,0.0451,0.0486,0.058,0.0635,0.073,0.0788,0.082,0.0811,0.0824,0.07,0.0644,0.0407,0.0555,0.0168,0.0118,0.0049,-0.0197,-0.0202,-0.0277,-0.0271,-0.0266,-0.0235,0,0,0,0,0]}]]